Hourly Data Report for October 25, 2016

All times are specified in Local Standard Time (LST). Add 1 hour to adjust for Daylight Saving Time where and when it is observed.

KUGLUKTUK A
NUNAVUT

67°49'00.000" N
115°08'38.000" W
22.60 m
2300903
71938
YCO

Download Data

Hourly Data (October 2016)
Hourly Data Report for October 25, 2016
Temp Definition
°C
Dew Point Temp Definition
°C
Rel Hum Definition
%
Wind Dir Definition
10's deg

Wind Spd Definition
km/h
Visibility Definition
km
Stn Press Definition
kPa
Hmdx Definition


Wind Chill Definition


Weather Definition


TIME
00:00 Legend Double Dagger -6.4 -8.4 86 21 14 24.1 102.48   -12 Snow
01:00 Legend Double Dagger -5.8 -7.5 88 22 15 12.9 102.45   -12 Snow
02:00 Legend Double Dagger -5.5 -6.9 90 21 12 6.4 102.42   -10 Snow
03:00 Legend Double Dagger -4.7 -6.1 90 18 10 6.4 102.38   -9 Snow
04:00 Legend Double Dagger -4.3 -7.1 81 20 16 19.3 102.35   -10 Snow
05:00 Legend Double Dagger -4.3 -6.3 86 21 20 8.1 102.29   -11 Snow
06:00 Legend Double Dagger -4.1 -5.7 89 21 20 8.1 102.26   -10 Snow
07:00 Legend Double Dagger -3.8 -5.1 91 21 20 4.8 102.23   -10 Snow,Blowing Snow
08:00 Legend Double Dagger -3.7 -4.7 93 20 17 2.4 102.23   -9 Snow
09:00 Legend Double Dagger -3.6 -4.7 92 21 23 4.8 102.19   -10 Snow,Blowing Snow
10:00 Legend Double Dagger -3.3 -4.7 90 22 21 9.7 102.16   -10 Snow
11:00 Legend Double Dagger -3.1 -4.5 90 22 18 9.7 102.15   -9 Snow
12:00 Legend Double Dagger -2.9 -4.5 89 22 19 9.7 102.13   -9 Snow
13:00 Legend Double Dagger -2.7 -4.3 89 22 16 12.9 102.13   -8 Snow
14:00 Legend Double Dagger -2.5 -4.4 87 22 17 19.3 102.13   -8 Cloudy
15:00 Legend Double Dagger -2.5 -4.4 87 24 16 19.3 102.13   -8 LegendNANA
16:00 Legend Double Dagger -2.5 -3.8 91 25 14 19.3 102.11   -7 LegendNANA
17:00 Legend Double Dagger -2.6 -3.7 92 24 15 19.3 102.11   -8 Cloudy
18:00 Legend Double Dagger -2.9 -3.9 93 25 16 16.1 102.11   -8 LegendNANA
19:00 Legend Double Dagger -3.7 -4.5 94 24 13 19.3 102.11   -9 Snow
20:00 Legend Double Dagger -3.7 -4.7 93 24 9 19.3 102.09   -7 Snow
21:00 Legend Double Dagger -3.9 -4.9 93 23 13 19.3 102.08   -9 Snow
22:00 Legend Double Dagger -4.1 -5.1 93 20 12 19.3 102.02   -9 Snow
23:00 Legend Double Dagger -4.0 -5.1 92 22 13 19.3 102.02   -9 Snow

Notes on Data Quality.

Legend

  • E = Estimated
  • M = Missing
  • NA = Not Available
  • ‡ = Partner data that is not subject to review by the National Climate Archives
Date modified: